Location: Dresden
(51.0483°N, 13.7137°E)
Time: 20:39:40
(UTC+01:00)

Envisat - Visible Passes

Search period start: 17 February 2018 00:00
Search period end: 27 February 2018 00:00
Orbit: 764 x 766 km, 98.2° (Epoch: 17 February)

Date Brightness Start Highest point End Pass type
(mag) Time Alt. Az. Time Alt. Az. Time Alt. Az.
17 Feb 2.9 19:04:33 10° SSE 19:09:35 67° ENE 19:14:39 10° N visible
17 Feb 5.3 20:45:21 10° SW 20:49:05 20° W 20:52:52 10° NW visible
18 Feb 3.6 18:28:28 10° SE 18:33:03 35° ENE 18:37:38 10° N visible
18 Feb 4.3 20:07:17 10° SSW 20:12:02 39° W 20:16:49 10° NNW visible
19 Feb 3.1 19:30:05 10° S 19:35:09 78° WSW 19:40:17 10° NNW visible
19 Feb 5.9 21:12:55 10° WSW 21:15:03 12° W 21:17:12 10° WNW visible
20 Feb 3.1 18:53:33 10° SE 18:58:29 55° ENE 19:03:27 10° N visible
20 Feb 5.1 20:33:41 10° SSW 20:37:50 25° W 20:42:00 10° NW visible
21 Feb 3.8 18:17:38 10° ESE 18:22:00 30° ENE 18:26:22 10° N visible
21 Feb 3.9 19:55:56 10° S 20:00:50 48° W 20:05:46 10° NNW visible
22 Feb 2.9 19:18:56 10° SSE 19:24:01 87° ENE 19:29:08 10° NNW visible
22 Feb 5.7 21:00:46 10° WSW 21:03:45 15° W 21:06:45 10° NW visible
23 Feb 3.3 18:42:35 10° SE 18:47:24 45° ENE 18:52:14 10° N visible
23 Feb 4.8 20:22:09 10° SSW 20:26:36 30° W 20:31:04 10° NNW visible
24 Feb 4.0 18:06:53 10° ESE 18:10:58 25° ENE 18:15:03 10° N visible
24 Feb 3.5 19:44:38 10° S 19:49:39 59° W 19:54:42 10° NNW visible
25 Feb 2.9 19:07:50 10° SSE 19:12:54 72° ENE 19:17:59 10° N visible
25 Feb 5.5 20:48:54 10° SW 20:52:28 19° W 20:56:03 10° NW visible
26 Feb 3.5 18:31:40 10° SE 18:36:20 38° ENE 18:41:00 10° N visible
26 Feb 4.4 20:10:42 10° SSW 20:15:22 36° W 20:20:05 10° NNW visible
